Location: Combourg
(48.4127°N, 1.7442°W)
Time: 22:17:43
(UTC+00:00)

Daily predictions for brighter satellites

Satellite Brightness Start Highest point End
(mag) Time Altitude Azimuth Time Altitude Azimuth Time Altitude Azimuth
CENTAUR R/B 3.5 16:34:12 10° W 16:39:49 41° NNW 16:46:52 10° NE
Cosmos 2360 4.3 16:36:41 10° SSW 16:42:23 78° ESE 16:48:09 10° NNE
Cosmos 2266 Rocket 4.1 16:43:02 10° N 16:49:02 53° ENE 16:54:55 10° SSE
Cosmos 1656 4.0 16:44:33 10° SW 16:50:11 73° WNW 16:55:54 10° NNE
Cosmos 2228 3.8 16:47:12 10° SSW 16:51:21 53° WNW 16:55:31 10° N
Cosmos 1606 Rocket 4.4 16:48:32 10° SSE 16:52:24 31° E 16:56:17 10° NNE
Cosmos 1503 Rocket 4.1 16:49:16 10° S 16:54:25 64° ESE 16:59:34 10° NNE
Lacrosse 5 rocket 2.6 16:52:35 10° WNW 16:55:37 23° N 16:58:36 10° NE
CZ-4C R/B 3.1 16:51:59 10° NW 16:58:57 85° SW 17:07:38 10° SE
UNK 4.2 16:55:09 10° NNE 16:59:27 39° E 17:03:43 10° SSE
Cosmos 1484 Rocket 2.5 16:56:09 10° SSE 16:59:39 88° WSW 17:03:09 10° NNW
Thor Agena Rocket 3.6 16:55:49 10° SSE 17:00:56 63° ENE 17:06:01 10° N
Cosmos 1743 2.4 16:58:17 10° NNW 17:01:32 78° W 17:04:46 10° S
Cosmos 1544 Rocket 3.8 16:57:18 10° SSW 17:01:42 74° W 17:06:09 10° N
NOSS 2-3 (D) 4.1 17:00:38 10° S 17:03:56 31° ESE 17:07:03 12° ENE
NOSS 2-3 (E) 4.0 17:01:14 10° S 17:04:34 34° ESE 17:07:43 12° ENE
Cosmos 1354 Rocket 4.2 17:00:20 10° S 17:05:28 56° ESE 17:10:36 10° NNE
NOSS 2-2 (D) 4.3 17:04:19 10° W 17:07:06 27° NW 17:09:45 10° NNE
IGS 5A 3.3 17:03:09 10° SSE 17:07:07 88° E 17:11:07 10° NNW
Cosmos 1777 Rocket 4.1 17:02:23 10° SSW 17:07:39 87° WNW 17:12:55 10° NNE
USA 238 DEB 4.2 17:03:52 10° S 17:09:17 35° ESE 17:14:48 11° NE
USA 238 4.2 17:03:59 10° S 17:09:24 35° ESE 17:14:54 11° NE
Cosmos 2151 2.9 17:05:28 10° N 17:09:39 88° W 17:13:49 10° S
MOS 1 Rocket 3.9 17:05:59 10° SE 17:10:36 39° ENE 17:15:28 10° N
Gbstr 26 Del rocket 2.9 17:09:11 10° SW 17:13:21 65° SSE 17:16:29 14° ENE
Cosmos 1726 Rocket 4.2 17:10:35 10° SSE 17:14:53 39° E 17:19:08 10° NNE
Cosmos 2082 4.4 17:12:28 10° NNW 17:17:35 32° NE 17:22:40 10° ESE
IRIDIUM 104 4.3 17:12:25 10° N 17:17:41 80° E 17:22:54 10° S
USA 215 3.9 17:12:07 11° ENE 17:17:59 44° N 17:24:08 10° WNW
AQUARIUS 4.5 17:14:01 10° SE 17:18:10 42° ENE 17:22:19 10° N
Meteor 1-20 Rocket 4.2 17:13:56 10° NNW 17:19:25 83° W 17:24:54 10° S
SMAP 3.0 17:14:47 10° SSE 17:19:25 74° ENE 17:24:06 10° N
Cosmos 1805 4.4 17:18:14 10° NNE 17:20:31 17° ENE 17:22:48 10° ESE
Cosmos 2297 Rocket 3.5 17:16:09 10° NW 17:21:32 45° WSW 17:26:52 10° S
Cosmos 1602 Rocket 4.1 17:18:26 10° NNW 17:22:47 64° W 17:27:03 10° S
Landsat 7 3.7 17:18:58 10° SSE 17:23:34 64° ENE 17:28:11 10° N
GEOS 3 Rocket 3.9 17:19:09 12° NE 17:24:05 55° SE 17:29:19 10° SSW
YAOGAN 1 3.7 17:23:18 10° ESE 17:26:31 21° ENE 17:29:46 10° NNE
IRIDIUM 114 4.4 17:21:34 10° N 17:26:49 86° W 17:32:02 10° S
Okean 1-7 Rocket 3.7 17:26:12 10° NNW 17:30:35 77° W 17:34:56 10° S
Cosmos 990 Rocket 3.9 17:27:42 10° SSW 17:32:49 80° ESE 17:38:00 10° NNE
Cosmos 1461 3.7 17:29:19 10° WSW 17:33:02 41° NW 17:36:23 13° NNE
CZ-2D R/B 4.3 17:30:57 10° SE 17:34:31 28° ENE 17:38:03 10° N
SL-16 R/B 3.0 17:29:30 10° N 17:35:38 62° WNW 17:41:43 10° SSW
COSMOS 2455 4.2 17:33:40 10° SE 17:37:28 18° ESE 17:38:36 17° E
SKYMED 2 4.4 17:35:14 18° NE 17:37:39 29° E 17:41:26 10° SSE
Okean 1 4.3 17:35:47 10° SE 17:38:21 21° E 17:38:21 21° E
Cosmos 1844 Rocket 3.8 17:39:58 10° N 17:44:28 23° NE 17:45:49 21° ENE
SJ-6F 4.3 17:40:51 10° SSE 17:44:47 64° ENE 17:48:48 10° N
Cosmos 2219 3.3 17:39:18 10° NNW 17:44:58 56° ENE 17:50:37 10° SE
Cosmos 1980 Rocket 2.3 17:39:41 10° S 17:45:10 54° ESE 17:49:21 17° NE
Aureole 1 Rocket 3.6 17:42:47 10° S 17:47:13 53° ESE 17:51:47 15° NNE
Cosmos 1953 Rocket 3.5 17:43:06 10° N 17:47:33 70° ENE 17:52:00 10° SSE
PSLV R/B 4.2 17:49:59 27° E 17:50:37 29° ENE 17:54:08 10° N
ARIANE 5 R/B 2.7 17:47:28 10° S 17:52:32 75° WSW 17:57:42 10° NNW
Cosmos 2263 Rocket 2.2 17:47:29 10° NNW 17:53:12 88° ENE 17:58:54 10° SSE
IRS-1C 4.3 17:48:55 10° S 17:54:14 75° WSW 17:59:35 10° NNW
Cosmos 1825 Rocket 4.2 17:51:05 10° NNW 17:55:22 58° W 17:59:35 10° S
BREEZE-M DEB (TANK) 3.6 17:53:03 10° SW 17:56:37 27° SSE 17:57:14 24° SE
Meteor 1-5 Rocket 4.2 17:52:31 10° NNW 17:57:54 79° W 18:03:25 10° S
Cosmos 1680 Rocket 4.1 17:53:46 10° N 17:58:31 34° ENE 18:00:24 26° E
NOSS 3-2 (C) 3.9 17:53:40 10° WSW 17:58:42 48° NW 18:03:21 17° NNE
BREEZE-M DEB (TANK) 3.7 17:55:24 10° WNW 17:58:48 89° NNE 18:06:53 16° ESE
COSMO-SKYMED 1 3.2 17:59:08 30° E 17:59:08 30° E 18:02:39 10° SSE
SAR-Lupe-4 4.2 17:55:52 10° S 17:59:22 57° WSW 18:02:53 10° NNW
Cosmos 1933 4.4 17:58:17 10° SSW 18:01:56 42° WNW 18:05:36 10° N
Cosmos 1076 Rocket 3.6 17:57:52 10° NNW 18:02:12 76° W 18:06:30 10° S
Meteor 2-10 4.0 17:56:59 10° N 18:02:24 74° ENE 18:07:58 10° SSE
Cosmos 2369 4.1 17:57:31 10° S 18:02:53 44° ESE 18:05:20 28° ENE
NOAA 6 4.5 17:58:14 10° SE 18:02:54 37° ENE 18:07:33 10° N
Cosmos 1655 Rocket 4.2 18:04:55 10° NNW 18:11:08 74° W 18:17:19 10° S
Cosmos 44 Rocket 4.1 18:06:48 10° NNW 18:11:27 33° NE 18:11:53 33° NE
USA 81 3.9 18:06:20 10° N 18:11:38 81° E 18:16:54 10° S
Cosmos 2227 Rocket 3.6 18:07:56 10° NW 18:13:11 40° WSW 18:18:23 10° S
SPOT 1/Viking Rocket 3.5 18:11:23 10° SSE 18:16:36 88° E 18:21:50 10° NNW
Cosmos 2058 Rocket 3.0 18:19:06 10° S 18:23:35 88° W 18:26:26 22° N
Cosmos 1697 Rocket 3.8 18:19:31 10° WSW 18:24:49 41° NW 18:29:16 14° NNE
CENTAUR R/B 4.2 18:26:56 10° WNW 18:32:32 26° N 18:35:36 20° NNE
Cosmos 2333 Rocket 4.1 18:28:26 10° SSE 18:29:34 14° SE 18:29:34 14° SE
Lacrosse 5 rocket 2.9 18:30:28 10° NW 18:32:26 21° NNW 18:32:26 21° NNW
Meteor 2-11 Rocket 4.3 18:28:21 10° N 18:34:31 68° ENE 18:40:37 10° SSE
NOSS 2-3 (C) 3.9 18:31:13 10° WSW 18:34:32 44° NW 18:34:52 42° NNW
MINOTAUR IV R/B 4.3 18:30:21 10° NNW 18:34:47 81° ENE 18:35:26 63° SE
Meteor 1-14 Rocket 4.2 18:32:59 10° N 18:38:40 54° ENE 18:39:10 53° E
Resurs 1-3 3.7 18:39:12 10° S 18:43:29 73° WSW 18:47:48 10° NNW
Cosmos-2242 3.6 18:41:50 10° SSW 18:46:00 55° WNW 18:47:46 31° NNW
Spot 4 Rocket 4.4 18:48:16 10° S 18:53:19 62° WSW 18:58:25 10° NNW
Cosmos 1898 Rocket 3.9 18:49:53 10° SW 18:54:58 60° WNW 18:56:44 39° N
Cosmos 1844 4.1 18:50:16 10° NNW 18:54:37 47° NNE 18:54:37 47° NNE
Gbstr 26 Del rocket 4.0 18:55:53 10° W 18:58:31 36° WNW 18:58:31 36° WNW
USA 238 DEB 3.9 18:53:45 10° WSW 18:59:51 59° NW 19:02:15 38° NNE
USA 238 3.9 18:53:50 10° WSW 18:59:57 59° NW 19:02:21 39° NNE
USA 215 3.6 18:59:28 44° NNE 19:00:17 47° NNE 19:06:29 10° WNW
Cosmos 2112 Rocket 4.0 18:55:09 10° NNW 18:59:48 70° N 18:59:48 70° N
Cosmos 1553 Rocket 4.1 18:54:16 10° SSW 19:00:26 74° W 19:06:45 10° N
S3M 4.4 18:54:47 10° S 18:59:18 45° SE 18:59:18 45° SE
IRAS Rocket 4.5 18:55:54 10° S 19:01:20 67° WSW 19:06:49 10° NNW
Cosmos 2082 4.4 18:56:23 10° NW 19:01:55 53° WSW 19:07:27 10° S
YAOGAN 1 3.5 18:58:01 10° S 19:02:06 45° W 19:06:13 10° NNW
BREEZE-M DEB (TANK) 3.6 19:00:21 10° SW 19:06:16 49° S 19:06:16 49° S
Cosmos 1937 Rocket 3.8 19:05:18 10° SW 19:10:25 60° WNW 19:10:58 56° NNW
Meteor 2-6 Rocket 4.2 19:05:08 10° SSW 19:10:50 83° WNW 19:11:38 67° N
Cosmos 2237 4.1 19:07:21 10° SSW 19:12:59 84° W 19:12:59 84° W
Cosmos 2227 4.2 19:07:29 10° NNW 19:12:29 71° NNW 19:12:29 71° NNW
SL-16 R/B 3.2 19:08:10 10° S 19:11:20 34° S 19:11:20 34° S
Cosmos 1745 Rocket 3.9 19:10:24 10° N 19:16:36 85° W 19:22:44 10° S
SL-24 R/B - RUBIN 2 4.4 19:11:26 10° SW 19:15:40 56° SW 19:15:40 56° SW
COSMOS 2455 2.9 19:16:31 10° SSW 19:21:46 70° SSW 19:21:46 70° SSW
Cosmos 1844 Rocket 3.3 19:23:19 10° NNW 19:27:31 51° NW 19:27:31 51° NW
Cosmos 1980 Rocket 3.7 19:24:28 10° WSW 19:29:27 31° NW 19:31:06 26° NNW
CENTAUR R/B 4.4 20:18:46 10° NW 20:22:42 27° NNW 20:22:42 27° NNW
